Retour au catalogue

DELTA 1 DEB

ActifLEO
NORAD 14904·DEBRIS·🇺🇸 United States

Lancé Jul 29, 1976 depuis Vandenberg Space Force Base

Loading…

Prochains Passages (prochaines 24 heures)

TLE

PériméSource: Space-Track

Époque: Aug 21, 2026, 13:52 UTC

1 14904U 76077ES  26233.57782468  .00000756  00000-0  39067-2 0  9993
2 14904 102.7221 161.9097 0006614 323.2881 213.4062 12.73173644601601

Suivez DELTA 1 DEB en temps réel avec AllMySat

Download on the App Store